[Date Prev][Date Next][Thread Prev][Thread Next] - [Date Index][Thread Index][Author Index]

2 Line ISS Keps 4-30



ISS
1 25544U 98067A   06119.97412505  .00011364  00000-0  76338-4 0  8311
2 25544 051.6381 075.6483 0008616 165.3823 268.3034 15.75737489425562
----
Via the sarex mailing list at AMSAT.ORG courtesy of AMSAT-NA.
To unsubscribe, send "unsubscribe sarex" to Majordomo@amsat.org



AMSAT Top AMSAT Home